This demonstration page uses our WeatherBlox Daily Observations layout. Learn more.

Left ArrowRight Arrow

41.55636, -103.73856

Hourly Observations for June 30, 2015

Temp ( °F °C ) Dew Point ( °F °C ) Humidity (%) Winds ( mph kmh ) Pressure ( in mb ) Visibility ( mi km ) Precip ( " mm )
12:53 am 00:53 Clear 65 18.3 56 13.3 73 73 E 5 7 29.96 1015 10 16.0934 0 0
1:53 am 01:53 Clear 63 17.2 55 12.8 76 76 Calm 29.94 1014 10 16.0934 0 0
2:53 am 02:53 Clear 61 16.1 55 12.8 81 81 NE 3 6 29.93 1013 10 16.0934 0 0
3:53 am 03:53 Clear 60 15.6 54 12.2 80 80 VRB 5 7 29.92 1013 10 16.0934 0 0
4:53 am 04:53 Clear 58 14.4 54 12.2 87 87 NW 6 9 29.92 1013 10 16.0934 0 0
5:53 am 05:53 Sunny 60 15.6 55 12.8 84 84 NW 7 11 29.93 1013 10 16.0934 0 0
6:53 am 06:53 Sunny 64 17.8 56 13.3 75 75 WNW 6 9 29.93 1014 10 16.0934 0 0
7:53 am 07:53 Sunny 67 19.4 55 12.8 66 66 WNW 7 11 29.93 1013 10 16.0934 0 0
8:53 am 08:53 Sunny 74 23.3 57 13.9 56 56 W 8 13 29.91 1013 10 16.0934 0 0
9:53 am 09:53 Sunny 81 27.2 58 14.4 45 45 VRB 5 7 29.88 1012 10 16.0934 0 0
10:53 am 10:53 Sunny 86 30 56 13.3 36 36 WNW 5 7 29.87 1011 10 16.0934 0 0
11:53 am 11:53 Sunny 91 32.8 57 13.9 32 32 VRB 6 9 29.84 1011 10 16.0934 0 0
12:53 pm 12:53 Sunny 93 33.9 51 10.6 24 24 VRB 5 7 29.82 1010 10 16.0934 0 0
1:53 pm 13:53 Sunny 96 35.6 49 9.4 20 20 VRB 3 6 29.8 1009 10 16.0934 0 0
2:53 pm 14:53 Sunny 98 36.7 48 8.9 18 18 VRB 3 6 29.77 1008 10 16.0934 0 0
3:53 pm 15:53 Mostly Sunny 91 32.8 54 12.2 28 28 WNW 7 11 29.78 1008 10 16.0934 0 0
4:53 pm 16:53 Sunny 96 35.6 53 11.7 23 23 W 8 13 29.76 1008 10 16.0934 0 0
5:53 pm 17:53 Sunny 95 35 53 11.7 24 24 W 6 9 29.74 1007 10 16.0934 0 0
6:53 pm 18:53 Sunny 90 32.2 57 13.9 33 33 NNE 10 17 29.76 1008 10 16.0934 0 0
7:53 pm 19:53 Sunny 85 29.4 60 15.6 43 43 NNE 9 15 29.78 1009 10 16.0934 0 0
8:53 pm 20:53 Clear 81 27.2 58 14.4 45 45 N 6 9 29.79 1009 10 16.0934 0 0
9:53 pm 21:53 Clear 81 27.2 56 13.3 42 42 Calm 29.81 1009 10 16.0934 0 0
11:53 pm 23:53 Clear 73 22.8 59 15 62 62 NW 10 17 29.85 1011 10 16.0934 0 0

Powered by AerisWeather